Tracking 20628 objects as of 6-Apr-2020
HD Live streaming from Space Station
objects crossing your sky now

COSMOS 2292

Track COSMOS 2292 now!
10-day predictions
COSMOS 2292 is classified as:


NORAD ID: 23278
Int'l Code: 1994-061A
Perigee: 402.9 km
Apogee: 1,706.8 km
Inclination: 83.0 °
Period: 106.1 minutes
Semi major axis: 7425 km
RCS: 2.958 m2 (large)
Launch date: September 27, 1994
Source: Commonwealth of Independent States (former USSR) (CIS)
Launch site: PLESETSK MISSILE AND SPACE COMPLEX (PKMTR)
aabbcc
Your satellite tracking list
Your tracking list is empty




NASA's NSSDC Master Catalog

Two Line Element Set (TLE):
1 23278U 94061A   20097.49979433  .00000455  00000-0  39423-4 0  9997
2 23278  82.9745 128.0727 0877946 302.8242  49.1281 13.56692289250034
Source of the keplerian elements: AFSPC